EST,Max TemperatureF,Mean TemperatureF,Min TemperatureF,Max Dew PointF,MeanDew PointF,Min DewpointF,Max Humidity, Mean Humidity, Min Humidity, Max Sea Level PressureIn, Mean Sea Level PressureIn, Min Sea Level PressureIn, Max VisibilityMiles, Mean VisibilityMiles, Min VisibilityMiles, Max Wind SpeedMPH, Mean Wind SpeedMPH, Max Gust SpeedMPH,PrecipitationIn, CloudCover, Events, WindDirDegrees
2012-12-1,37,30,23,37,31,19,100,93,86,30.30,30.05,29.79,10,5,1,15,10,20,0.00,8,Rain-Snow,134
2012-12-2,41,39,37,39,37,36,100,95,87,30.06,29.90,29.75,10,5,0,9,4,,0.00,8,Fog-Rain,260
2012-12-3,55,46,37,55,43,36,100,95,87,30.07,29.85,29.58,10,5,0,22,10,32,0.00,8,Fog-Rain,162
2012-12-4,53,38,24,52,32,18,100,84,64,30.12,29.89,29.63,10,9,2,21,11,26,0.00,4,Snow,258
2012-12-5,28,22,17,25,20,16,93,82,69,30.41,30.31,30.12,10,9,1,13,6,17,0.00,5,Snow,317
2012-12-6,37,34,30,37,32,27,100,89,80,30.20,29.95,29.78,10,7,2,21,13,28,0.00,8,Rain-Snow,184
2012-12-7,37,34,30,36,28,23,100,83,70,30.01,29.94,29.80,10,10,5,10,6,16,0.00,8,,291
2012-12-8,30,28,26,28,25,19,100,87,69,30.18,30.04,29.96,10,8,2,9,3,,0.00,8,Snow,295
2012-12-9,26,22,17,23,20,16,100,88,80,30.25,30.11,29.82,10,7,1,15,4,18,0.00,7,Snow,65
2012-12-10,24,22,19,21,19,18,100,88,74,29.88,29.76,29.67,10,7,2,13,6,22,0.00,8,Snow,358
2012-12-11,30,21,12,27,18,9,100,87,69,29.93,29.86,29.80,10,8,0,16,5,22,0.00,8,Snow,177
2012-12-12,37,22,8,36,17,7,93,83,68,30.20,30.10,29.93,10,10,10,16,8,22,0.00,4,Snow,202
2012-12-13,39,34,30,36,30,27,93,76,65,30.10,30.03,29.97,10,10,5,26,15,40,0.00,6,Rain-Snow,223
2012-12-14,32,28,23,30,25,21,93,89,80,30.25,30.19,30.07,10,10,10,12,6,18,0.00,7,,359
2012-12-15,37,29,21,34,30,19,100,92,81,30.19,29.95,29.65,10,8,2,20,11,26,0.00,7,Rain-Snow,112
2012-12-16,35,34,33,34,33,32,100,95,93,29.64,29.55,29.52,7,2,0,14,7,21,0.00,8,Fog-Rain-Snow,97
2012-12-17,35,32,30,34,32,30,100,94,87,29.67,29.62,29.55,10,9,3,13,7,17,0.00,8,Snow,260
2012-12-18,35,30,26,30,29,27,100,93,81,29.77,29.70,29.65,10,10,0,6,2,,0.00,8,Fog-Snow,271
2012-12-19,37,30,23,32,27,21,100,91,70,30.07,29.95,29.77,10,9,1,9,3,,0.00,4,,214
2012-12-20,32,29,26,30,28,25,100,94,93,30.07,29.73,29.43,10,4,0,18,8,29,0.00,8,Snow,53
2012-12-21,28,26,24,25,24,19,93,87,74,29.93,29.70,29.43,10,6,0,21,14,36,0.00,8,Snow,342
2012-12-22,28,22,17,21,20,16,93,82,69,29.99,29.94,29.83,10,10,10,17,10,28,0.00,7,,280
2012-12-23,26,22,19,23,19,16,93,85,80,29.98,29.90,29.81,10,8,1,16,10,24,0.00,8,Snow,279
2012-12-24,24,20,17,21,17,14,93,85,74,30.07,29.97,29.94,10,10,3,13,8,,0.00,8,Snow,255
2012-12-25,24,22,19,19,18,18,93,85,74,30.39,30.27,30.08,10,10,3,12,6,,0.00,8,Snow,266
2012-12-26,24,22,19,18,17,12,93,84,74,30.38,30.26,30.16,10,10,4,12,5,9,0.00,7,Snow,22
2012-12-27,24,19,14,19,15,10,93,84,74,30.19,30.15,30.12,10,10,10,12,4,,0.00,6,,337
2012-12-28,23,19,15,19,16,12,93,88,80,30.13,30.08,30.00,10,10,10,5,1,,0.00,8,,49
2012-12-29,24,17,10,19,17,9,93,89,80,30.00,29.94,29.89,10,10,4,7,2,,0.00,8,Snow,291
2012-12-30,26,22,17,25,18,16,93,85,64,30.12,30.04,29.90,10,10,7,15,8,21,0.00,7,Snow,223
2012-12-31,30,22,15,27,17,10,93,81,59,30.02,29.88,29.78,10,7,1,21,13,26,0.00,8,Snow,266